Albany, NY

8:49 AM EST on December 14, 2019 (GMT -0500)
Albany International

Weather History for KALB - October, 2019

Change the Weather History Date:

Friday, October 18, 2019

  Actual Average Record
Temperature  
Mean Temperature 47 °F 49 °F  
Max Temperature 52 °F 59 °F 84 °F (2016)
Min Temperature 41 °F 39 °F 22 °F (1978)
Degree Days  
Heating Degree Days 18 16  
Month to date heating degree days 200 238  
Since 1 July heating degree days 277 405  
Cooling Degree Days 0 0  
Month to date cooling degree days 4 0  
Year to date cooling degree days 771 594  
Moisture  
Dew Point 38 °F    
Average Humidity 68    
Maximum Humidity 76    
Minimum Humidity 60    
Precipitation  
Precipitation 0.00 in 0.12 in 2.31 in (1911)
Month to date precipitation 5.34 2.19  
Year to date precipitation 36.55 31.64  
Snow  
Snow 0.00 in 0.10 in T in (2015)
Month to date snowfall 0.0 0.2  
Since 1 July snowfall 0.0 0.2  
Since 1 September snowfall 0.0 0.2  
Snow Depth 0.00 in    
Sea Level Pressure  
Sea Level Pressure 29.84 in    
Wind  
Wind Speed 11 mph (WNW)    
Max Wind Speed 23 mph    
Max Gust Speed 34 mph    
Visibility 10 miles    
Events      
T = Trace of Precipitation, MM = Missing Value Source: NWS Daily Summary

Daily Weather History Graph

Daily Weather History Graph

Search for Another Location

Airport or City:

Astronomy

Oct. 18, 2019 Rise Set
Actual Time 7:11 AM EDT 6:08 PM EDT
Civil Twilight 6:43 AM EDT 6:36 PM EDT
Nautical Twilight 6:10 AM EDT 7:09 PM EDT
Astronomical Twilight 5:37 AM EDT 7:42 PM EDT
Moon 9:17 PM EDT (10/18) 11:47 AM EDT (10/18)
Length of Visible Light 11h 53m
Length of Day
10h 56m
Waning Gibbous, 79% of the Moon is Illuminated
Oct 18
Waning Gibbous
Oct 21
Last Quarter
Oct 27
New
Nov 4
First Quarter
Nov 12
Full

Hourly Weather History & Observations

Time (EDT) Temp. Windchill Dew Point Humidity Pressure Visibility Wind Dir Wind Speed Gust Speed Precip Events Conditions
12:51 AM 51.1 °F - 39.9 °F 66% 29.58 in 10.0 mi West 13.8 mph 21.9 mph N/A   Overcast
1:51 AM 50.0 °F - 39.9 °F 68% 29.60 in 10.0 mi West 17.3 mph - N/A   Overcast
2:51 AM 48.9 °F - 39.9 °F 71% 29.63 in 10.0 mi West 15.0 mph - N/A   Overcast
3:51 AM 48.9 °F - 39.0 °F 69% 29.65 in 10.0 mi WNW 17.3 mph 23.0 mph N/A   Overcast
5:51 AM 48.0 °F - 39.0 °F 71% 29.71 in 10.0 mi NW 11.5 mph 23.0 mph N/A   Overcast
6:51 AM 48.0 °F - 37.9 °F 68% 29.74 in 10.0 mi NNW 9.2 mph 18.4 mph N/A   Overcast
7:25 AM 46.9 °F - 37.9 °F 71% 29.75 in 10.0 mi NW 16.1 mph 21.9 mph N/A   Mostly Cloudy
7:51 AM 46.9 °F - 37.9 °F 71% 29.76 in 10.0 mi WNW 15.0 mph - N/A   Mostly Cloudy
8:51 AM 48.9 °F - 37.9 °F 66% 29.81 in 10.0 mi WNW 10.4 mph - N/A   Mostly Cloudy
9:51 AM 48.9 °F - 37.9 °F 66% 29.83 in 10.0 mi West 9.2 mph 20.7 mph N/A   Mostly Cloudy
10:51 AM 50.0 °F - 37.9 °F 63% 29.83 in 10.0 mi WNW 13.8 mph 21.9 mph N/A   Mostly Cloudy
11:31 AM 50.0 °F - 37.9 °F 63% 29.84 in 10.0 mi West 19.6 mph 27.6 mph N/A   Mostly Cloudy
11:51 AM 50.0 °F - 37.9 °F 63% 29.85 in 10.0 mi WNW 15.0 mph 28.8 mph N/A   Mostly Cloudy
12:51 PM 50.0 °F - 37.9 °F 63% 29.86 in 10.0 mi West 17.3 mph - N/A   Mostly Cloudy
1:51 PM 50.0 °F - 37.0 °F 61% 29.87 in 10.0 mi WNW 17.3 mph 24.2 mph N/A   Overcast
2:51 PM 50.0 °F - 37.9 °F 63% 29.89 in 10.0 mi WNW 12.7 mph 24.2 mph N/A   Overcast
3:51 PM 50.0 °F - 37.0 °F 61% 29.91 in 10.0 mi WNW 18.4 mph - N/A   Mostly Cloudy
4:51 PM 50.0 °F - 37.9 °F 63% 29.93 in 10.0 mi WNW 11.5 mph - N/A   Mostly Cloudy
5:51 PM 48.9 °F - 37.9 °F 66% 29.94 in 10.0 mi WNW 8.1 mph - N/A   Mostly Cloudy
6:51 PM 48.0 °F - 37.0 °F 66% 29.97 in 10.0 mi WNW 9.2 mph - N/A   Mostly Cloudy
7:51 PM 48.0 °F - 36.0 °F 63% 30.00 in 10.0 mi NNW 11.5 mph - N/A   Overcast
8:51 PM 46.9 °F - 36.0 °F 66% 30.01 in 10.0 mi NW 6.9 mph - N/A   Overcast
9:51 PM 46.9 °F - 34.0 °F 61% 30.03 in 10.0 mi NNW 10.4 mph 18.4 mph N/A   Overcast
10:51 PM 43.0 °F 39.5 °F 34.0 °F 71% 30.03 in 10.0 mi West 5.8 mph - N/A   Mostly Cloudy
11:51 PM 42.1 °F 38.4 °F 35.1 °F 76% 30.03 in 10.0 mi West 5.8 mph - N/A   Scattered Clouds